Find Starlink 31239

NORAD ID: 60093 Int'l Des: 2024-117 Owner: SPXS Country: US Constellation: starlink operational
LEOCIRCULAR

リアルタイム位置

3D地球を読み込み中...

Starlink 31239について

説明を読み込み中...

次回通過

Passes for default location (London). Set your location on the main map for personalized predictions.

高度履歴

Loading altitude history...

軌道要素

1 60093U 24117C 26126.50003612 -.00000965 00000-0 -20477-4 0 9993
2 60093 53.1598 128.8756 0001144 83.6566 276.4565 15.30183330105730
Epoch: May 6, 2026 • Age: 19 hours

現在のステータス

高度 480.8 km
速度 7.63 km/s
衛星直下点 52.20°N, 102.52°W
打ち上げ日 Jun 23, 2024
運用期間 1.8 years
タイプ internet

技術仕様

分類 Payload
質量 730.00 kg
乾燥質量 700.00 kg
総質量 730.00 kg
長さ 0.30 m
直径 4.10 m
スパン 29.00 m
形状 Box + pan
製造者 SPXS
バスタイプ Starlink V2M
フェーズステータス In Orbit
所有者/国 SPXS/US

Most Searched